CZ-3C DEB, 40199

Orbit data source: Space-Track

CZ-3C DEB, 40199 is space debris in HEO originally from a launch on Fri, 24 Feb 2012 UTC launched from the Xichang Space Center, China (XSC). Debris objects in space refer to the collection of defunct objects orbiting the Earth. Examples of debris include non-operational satellites, rocket bodies, and fragments generated from explosions, collisions, or faulty payload assembly.

Loading next visibility...
Identifier
40199, 2012-008J
Orbit
HEO
Country
Flag of CNCN / PRC
Related business
Manufacturer
CALT
Mission
Spacecraft
Bus & Motor
Unknown
Mass
Unknown
Launch date (UTC)
2012-02-24 (14 years ago)
Launch vehicle
Unknown
Launch site
Xichang Space Center, China (XSC)
Object type
Payload
Rocket body
Debris
Shape & HBR
Unknown shape, 0.3 m
Radar Cross Section
Medium (>0.1 m² and <1 m²)

Expand to show TLE details & history
Last TLE update: 6 months ago

TLE from 6 months ago
0 CZ-3C DEB
1 40199U 12008J   25359.65683824 -.00000137  00000-0  29282-2 0  9997
2 40199  17.8317 248.0470 7238305 222.7414  49.8667  2.09203849 92577
Epoch: 2025-12-25T15:45Z
TLE epoch observation values (Epoch: 2025-12-25T15:45:50.823Z)
Latitude
0.00019°
Longitude
-82.72922°
Altitude
19,908.694 km
Speed
3.859 km/s
True Right ascension
16h 32m 33s
True Declination
0° 00' 01"
Sunlit
Object was in daylight at epoch
Visualization orbit readout
Latitude
Unknown
Longitude
Unknown
Altitude
Unknown
Speed
Unknown
Apparent Right ascension
Unknown
Apparent Declination
Unknown
Sunlit
N/A
Visualization observer readout
Local Sidereal Time
21:36:40
Azimuth
Unknown
Elevation
Unknown
Doppler factor
Unknown
Orbital elements
Apogee altitude
38,145.632 km
Perigee altitude
754.877 km
Semi-major axis
25,828.392 km
Eccentricity
0.72383
Inclination
17.8317°
RAAN
248.047°
Arg. of periapsis
222.7414°
True anomaly
137.28033°
Mean anomaly
49.8667°
Eccentric anomaly
91.32799°
Mean motion
0.52287 °/min
Orbital period
688.5 mins
BSTAR
0.0029282
Loading maneuver chart data...
Computing Atmospheric mass density...
Loading historical data...
Loading historical data...
Loading historical data...
Loading historical data...
Loading historical data...
Loading historical data...
Loading historical data...

Documentation

Showing up to 5 results
|